Regional Weather Roundup
Issued by NWS

Home | Current Version | Previous Version | Graphics & Text | Print | Product List | Glossary On
Versions: 1 2 3 4 5 6 7 8 9 10 11 12 13 14 15 16 17 18 19 20 21 22 23 24 25 26 27 28 29 30 31 32 33 34 35 36 37 38 39 40 41 42 43 44 45 46 47 48 49 50
000
ASUS45 KCYS 270110
RWRWY

WYOMING REGIONAL WEATHER ROUNDUP
NATIONAL WEATHER SERVICE CHEYENNE WY
700 PM MDT THU MAR 26 2015

NOTE:  "FAIR" INDICATES FEW OR NO CLOUDS BELOW 12,000 FEET
WITH NO SIGNIFICANT WEATHER AND/OR OBSTRUCTIONS TO VISIBILITY.

WYZ001-270200-
YELLOWSTONE NATIONAL PARK

CITY           SKY/WX    TMP DP  RH WIND       PRES   REMARKS
LK YELLOWSTONE   N/A     39  29  67 W5        30.37R
W YELLOWSTONE  NOT AVBL

$$
WYZ002>013-054>058-071-098>099-270200-
NORTHERN WYOMING

CITY           SKY/WX    TMP DP  RH WIND       PRES   REMARKS
JACKSON        MOCLDY    46  30  53 CALM      30.32S
CODY           FAIR      59  28  31 W13G25    30.15S
GREYBULL       CLOUDY    61  30  31 CALM      30.10S
WORLAND        CLOUDY    58  30  34 NE6       30.11S
SHERIDAN       CLOUDY    54  36  50 N12       30.09R
BUFFALO        CLOUDY    52  34  50 N10       30.12R
GILLETTE       CLOUDY    50  35  56 N7        30.09R
HULETT         DRIZZLE   45  32  61 CALM      30.12R
NEWCASTLE      FAIR      45  32  61 N6        30.10S

$$
WYZ014>020-022>026-101>103-270200-
CENTRAL WYOMING

CITY           SKY/WX    TMP DP  RH WIND       PRES   REMARKS
BIG PINEY      FAIR      47  28  47 NW15G32   30.32R
PINEDALE       FAIR      45  30  57 W17       30.31R
DUBOIS         FAIR      45  28  53 NW16G23   30.28R
LANDER         FAIR      57  27  31 N20G29    30.13R
RIVERTON       FAIR      58  26  29 E7        30.15R
CASPER         CLOUDY    53  29  39 N3        30.13R
DOUGLAS        CLOUDY    52  30  43 N7        30.11F

$$
WYZ021-027>030-104>119-270200-
SOUTHERN WYOMING

CITY           SKY/WX    TMP DP  RH WIND       PRES   REMARKS
EVANSTON       FAIR      51  27  39 NW10      30.36R
KEMMERER       FAIR      46  32  57 W17G23    30.35S
FORT BRIDGER   FAIR      52  30  42 NW21G28   30.35S
ROCK SPRINGS   FAIR      51  27  39 W24G31    30.26R
DIXON          CLOUDY    56  24  30 W13G22    30.24S
RAWLINS        FAIR      55  24  30 W15G24    30.18S
SARATOGA       CLOUDY    52  25  35 W8        30.20F
LARAMIE        CLOUDY    48  24  39 W15       30.17S
CHEYENNE       CLOUDY    48  25  40 N9        30.14R
TORRINGTON     MOCLDY    50  32  50 N17       30.09S
PINE BLUFFS    FAIR      46  27  46 N7        30.13S

$$


USA.gov is the U.S. government's official web portal to all federal, state and local government web resources and services.